TimeCDT,TemperatureF,Dew PointF,Humidity,Sea Level PressureIn,VisibilityMPH,Wind Direction,Wind SpeedMPH,Gust SpeedMPH,PrecipitationIn,Events,Conditions,WindDirDegrees,DateUTC
12:37 AM,64.4,62.6,94,29.86,10.0,SSW,3.5,-,N/A,,Overcast,210,2013-08-06 05:37:00
12:54 AM,64.0,62.1,93,29.85,10.0,Variable,4.6,-,N/A,,Overcast,0,2013-08-06 05:54:00
1:45 AM,62.6,62.6,100,29.85,10.0,Calm,Calm,-,N/A,,Overcast,0,2013-08-06 06:45:00
1:54 AM,63.0,62.1,97,29.84,10.0,SSW,4.6,-,N/A,,Overcast,210,2013-08-06 06:54:00
2:54 AM,64.0,62.1,93,29.83,10.0,SSW,3.5,-,N/A,,Overcast,210,2013-08-06 07:54:00
3:54 AM,63.0,62.1,97,29.83,7.0,Calm,Calm,-,N/A,,Overcast,0,2013-08-06 08:54:00
4:11 AM,62.6,60.8,94,29.83,6.0,SSW,3.5,-,N/A,,Overcast,210,2013-08-06 09:11:00
4:21 AM,62.6,62.6,100,29.83,3.0,SW,4.6,-,N/A,,Overcast,220,2013-08-06 09:21:00
4:26 AM,62.6,62.6,100,29.83,1.8,South,5.8,-,N/A,,Overcast,190,2013-08-06 09:26:00
4:32 AM,62.6,62.6,100,29.82,0.8,South,4.6,-,N/A,,Overcast,190,2013-08-06 09:32:00
4:54 AM,62.1,62.1,100,29.81,1.0,SSW,5.8,-,N/A,,Mist,210,2013-08-06 09:54:00
5:13 AM,62.6,62.6,100,29.82,1.2,SW,4.6,-,N/A,,Overcast,220,2013-08-06 10:13:00
5:37 AM,62.6,62.6,100,29.81,3.0,SSW,3.5,-,N/A,,Overcast,210,2013-08-06 10:37:00
5:54 AM,63.0,62.1,97,29.81,3.0,SW,4.6,-,N/A,,Overcast,220,2013-08-06 10:54:00
6:03 AM,62.6,62.6,100,29.82,1.8,SW,8.1,-,N/A,,Overcast,220,2013-08-06 11:03:00
6:20 AM,62.6,62.6,100,29.81,0.8,SW,5.8,-,N/A,,Overcast,220,2013-08-06 11:20:00
6:37 AM,62.6,62.6,100,29.82,1.2,WSW,3.5,-,N/A,,Overcast,240,2013-08-06 11:37:00
6:54 AM,64.0,63.0,96,29.82,2.0,SW,5.8,-,N/A,,Overcast,220,2013-08-06 11:54:00
7:03 AM,64.4,62.6,94,29.83,1.0,SW,4.6,-,N/A,,Overcast,230,2013-08-06 12:03:00
7:13 AM,64.4,62.6,94,29.83,0.8,SW,6.9,-,N/A,,Overcast,220,2013-08-06 12:13:00
7:24 AM,64.4,62.6,94,29.83,1.2,WSW,4.6,-,N/A,,Overcast,240,2013-08-06 12:24:00
7:54 AM,64.0,64.0,100,29.83,2.0,WSW,4.6,-,N/A,,Overcast,240,2013-08-06 12:54:00
8:05 AM,64.4,64.4,100,29.84,4.0,West,5.8,-,N/A,,Overcast,260,2013-08-06 13:05:00
8:15 AM,64.4,62.6,94,29.84,6.0,WSW,8.1,-,N/A,,Overcast,250,2013-08-06 13:15:00
8:50 AM,66.2,62.6,88,29.83,9.0,WSW,6.9,-,N/A,,Mostly Cloudy,250,2013-08-06 13:50:00
8:54 AM,66.9,63.0,87,29.83,9.0,WSW,6.9,-,N/A,,Mostly Cloudy,250,2013-08-06 13:54:00
9:05 AM,66.2,62.6,88,29.84,9.0,WSW,9.2,-,N/A,,Mostly Cloudy,240,2013-08-06 14:05:00
9:31 AM,68.0,60.8,78,29.85,10.0,West,12.7,-,N/A,,Mostly Cloudy,260,2013-08-06 14:31:00
9:54 AM,70.0,60.1,71,29.85,10.0,WSW,11.5,17.3,N/A,,Mostly Cloudy,250,2013-08-06 14:54:00
10:19 AM,69.8,60.8,73,29.85,10.0,West,10.4,-,N/A,,Scattered Clouds,270,2013-08-06 15:19:00
10:54 AM,68.0,59.0,73,29.84,10.0,West,10.4,-,N/A,,Clear,270,2013-08-06 15:54:00
11:54 AM,73.0,60.1,64,29.84,10.0,SW,11.5,16.1,N/A,,Partly Cloudy,230,2013-08-06 16:54:00
12:54 PM,75.9,59.0,56,29.81,10.0,Variable,6.9,-,N/A,,Clear,0,2013-08-06 17:54:00
1:54 PM,77.0,57.9,52,29.80,10.0,West,9.2,-,N/A,,Clear,260,2013-08-06 18:54:00
2:54 PM,79.0,55.0,44,29.78,10.0,WSW,9.2,-,N/A,,Clear,250,2013-08-06 19:54:00
3:54 PM,80.1,53.1,39,29.79,10.0,WSW,5.8,17.3,N/A,,Partly Cloudy,250,2013-08-06 20:54:00
4:55 PM,80.1,55.9,43,29.78,10.0,West,6.9,-,N/A,,Unknown,280,2013-08-06 21:55:00
5:54 PM,79.0,59.0,50,29.77,10.0,WSW,6.9,-,N/A,,Clear,240,2013-08-06 22:54:00
6:54 PM,78.1,61.0,56,29.77,10.0,SW,6.9,-,N/A,,Scattered Clouds,220,2013-08-06 23:54:00
7:54 PM,72.0,63.0,73,29.75,10.0,SSW,4.6,-,N/A,,Mostly Cloudy,200,2013-08-07 00:54:00
8:54 PM,71.1,62.1,73,29.74,10.0,South,4.6,-,N/A,,Scattered Clouds,180,2013-08-07 01:54:00
9:54 PM,72.0,64.0,76,29.74,10.0,SSW,6.9,-,N/A,,Clear,200,2013-08-07 02:54:00
10:54 PM,71.1,66.0,84,29.72,10.0,SSW,8.1,-,0.00,Rain,Light Rain,210,2013-08-07 03:54:00
11:14 PM,64.4,60.8,88,29.78,1.8,NW,27.6,40.3,0.16,Rain,Heavy Rain,310,2013-08-07 04:14:00
11:17 PM,62.6,59.0,88,29.80,1.5,WNW,17.3,40.3,0.18,Rain,Heavy Rain,300,2013-08-07 04:17:00
11:34 PM,62.6,59.0,88,29.77,3.0,WNW,12.7,26.5,0.40,Rain,Light Rain,290,2013-08-07 04:34:00
11:54 PM,61.0,59.0,93,29.78,6.0,SW,5.8,-,0.42,Rain,Rain,220,2013-08-07 04:54:00